Long Lake, NY

9:49 AM EDT on March 26, 2017 (GMT -0400)
Adirondack Acres W2CJS | | Change Station
Active Advisory: Freezing Rain Advisory

Elev 1650 ft 43.98 °N, 74.43 °W | Updated 0 second ago

Mostly Cloudy
Mostly Cloudy
31.5 °F
Feels Like 32 °F
N
1.0
Wind Variable Wind from NNE
Gusts 4.0 mph

Today
High -- | Low -- °F
--% Chance of Precip.
Yesterday
High -- | Low -- °F
Precip. -- in
Pressure 30.44 in
Visibility 10.0 miles
Clouds Clear
Windchill 32 °F
Dew Point 14 °F
Humidity 49%
Rainfall 0.00 in
Snow Depth Not available.
6:49 AM 7:17 PM
Waning Crescent, 3% visible
METAR KSLK 261251Z AUTO 06006KT 10SM CLR M06/M10 A3036 RMK AO2 SLP308 T10561100 $
Pressure 30.44 in
Visibility 10.0 miles
Clouds Clear
Windchill 32 °F
Dew Point 14 °F
Humidity 49%
Rainfall 0.00 in
Snow Depth Not available.
6:49 AM 7:17 PM
Waning Crescent, 3% visible
METAR KSLK 261251Z AUTO 06006KT 10SM CLR M06/M10 A3036 RMK AO2 SLP308 T10561100 $

Get Your Daily Forecast Email!

Thanks for signing up!

Be on the lookout for a verification email in your inbox.

You'll start receiving severe weather alerts in your inbox..

×

10-Day Weather Forecast

Almanac

Astronomy

Mar. 26, 2017 Rise Set
Actual Time
Civil Twilight
Nautical Twilight
Astronomical Twilight
Moon
Length of Visible Light
Length of Day
Tomorrow will be .
, % of the Moon is Illuminated

Today's Extremes

State Highs State Lows

Community

WunderPhotos

Upload Photos

1,962,540 photos uploaded!

WunderBlog® & News

Nearby

Air Quality

  Air Quality AQ Index Pollutant
Not available.

Snow Depth

Station Depth Elevation

Earthquake Activity

City Distance Mag. Time & Date
Minimum magnitude displayed is 2.5.

Earthquake Activity

City Distance Mag. Time & Date
Minimum magnitude displayed is 2.5.

Coastal Water Temperatures

Place Temperature

Stations

Nearby Weather Stations

Station Location Temp. Windchill Dew Point Humidity Wind Precip. Elev Updated Type
                   

Watches & Warnings

Freezing Rain Advisory
Issued: 6:44 AM EDT Mar. 26, 2017 – National Weather Service

... Freezing Rain Advisory remains in effect until 11 PM EDT this
evening...

* locations... Hamilton, northern Warren and norther Fulton
counties.

* Hazard types... freezing rain.

* Ice accumulations... around a tenth of an inch with isolated
higher amounts.

* Timing... mixed precipitation to primarily freezing rain into
the evening hours.

* Impacts... hazardous travel due to icy roads. Isolated power
outages are possible.

* Temperatures... in the upper 20s to lower 30s.

Precautionary/preparedness actions...

A Freezing Rain Advisory means that periods of freezing rain or
freezing drizzle will cause travel difficulties. Be prepared for
slippery roads. Slow down and use caution while driving.